Simultaneous Nadir Overpasses (SNOs) Predictions

Prediction of SNOs between NOAA-19 and METOP-C Satellite Orbit:

Table of predicted SNOs for the next 14.0 days since TLE Epoch: 9/24/2022
Index Date (NOAA-19) Time (NOAA-19) Lat,Lon (NOAA-19) SZA (NOAA-19 ) Date (METOP-C) Time (METOP-C) Lat,Lon (METOP-C) SZA (METOP-C ) Distance(km) Time Diff (sec)
1 09/30/2022 00:27:33 -80.89, 26.65 94.70 09/30/2022 00:28:39 -80.90, 26.75 94.65 2.03 66
2 09/30/2022 01:18:34 80.89,-166.02 85.33 09/30/2022 01:19:20 80.90,-166.07 85.34 1.00 46
3 09/30/2022 02:09:32 -80.89, 1.43 94.64 09/30/2022 02:10:01 -80.89, 1.24 94.65 3.26 29
4 09/30/2022 03:00:34 80.89, 168.39 85.35 09/30/2022 03:00:42 80.89, 168.41 85.35 1.08 8
5 09/30/2022 03:51:32 -80.89, -24.17 94.62 09/30/2022 03:51:23 -80.89, -24.27 94.64 1.96 9
6 09/30/2022 04:42:33 80.89, 143.17 85.40 09/30/2022 04:42:03 80.90, 143.25 85.40 1.50 30
7 09/30/2022 05:33:31 -80.89, -49.40 94.57 09/30/2022 05:32:44 -80.89, -49.43 94.59 0.65 47



Historial Predications of SNOs between NOAA-19 and METOP-C
